site,time,unit,value
Darley Abbey,10/11/2023 00:00:00,MW,6.9305455
Darley Abbey,10/11/2023 00:05:00,MW,6.9240113999999995
Darley Abbey,10/11/2023 00:10:00,MW,6.8366063
Darley Abbey,10/11/2023 00:15:00,MW,6.9918938
Darley Abbey,10/11/2023 00:20:00,MW,6.7963293
Darley Abbey,10/11/2023 00:25:00,MW,6.6741135
Darley Abbey,10/11/2023 00:30:00,MW,6.7769417999999995
Darley Abbey,10/11/2023 00:35:00,MW,6.8075464
Darley Abbey,10/11/2023 00:40:00,MW,6.805999099999999
Darley Abbey,10/11/2023 00:45:00,MW,6.7711188
Darley Abbey,10/11/2023 00:50:00,MW,6.7742214
Darley Abbey,10/11/2023 00:55:00,MW,6.8724489
Darley Abbey,10/11/2023 01:00:00,MW,6.8775434
Darley Abbey,10/11/2023 01:05:00,MW,6.8391648
Darley Abbey,10/11/2023 01:10:00,MW,6.8145894
Darley Abbey,10/11/2023 01:15:00,MW,6.7456711
Darley Abbey,10/11/2023 01:20:00,MW,6.7187938
Darley Abbey,10/11/2023 01:25:00,MW,6.7179271
Darley Abbey,10/11/2023 01:30:00,MW,6.7183984
Darley Abbey,10/11/2023 01:35:00,MW,6.7259142999999995
Darley Abbey,10/11/2023 01:40:00,MW,6.722644799999999
Darley Abbey,10/11/2023 01:45:00,MW,6.786091600000001
Darley Abbey,10/11/2023 01:50:00,MW,6.746217700000001
Darley Abbey,10/11/2023 01:55:00,MW,6.7145498
Darley Abbey,10/11/2023 02:00:00,MW,6.782886700000001
Darley Abbey,10/11/2023 02:05:00,MW,6.8264555
Darley Abbey,10/11/2023 02:10:00,MW,6.822313
Darley Abbey,10/11/2023 02:15:00,MW,6.829819199999999
Darley Abbey,10/11/2023 02:20:00,MW,6.8285015
Darley Abbey,10/11/2023 02:25:00,MW,6.7573755
Darley Abbey,10/11/2023 02:30:00,MW,6.834406100000001
Darley Abbey,10/11/2023 02:35:00,MW,6.844871700000001
Darley Abbey,10/11/2023 02:40:00,MW,6.7869744
Darley Abbey,10/11/2023 02:45:00,MW,6.6938485
Darley Abbey,10/11/2023 02:50:00,MW,6.676735000000001
Darley Abbey,10/11/2023 02:55:00,MW,6.657598
Darley Abbey,10/11/2023 03:00:00,MW,6.6591895999999995
Darley Abbey,10/11/2023 03:05:00,MW,6.569516800000001
Darley Abbey,10/11/2023 03:10:00,MW,6.5782574
Darley Abbey,10/11/2023 03:15:00,MW,6.5831016
Darley Abbey,10/11/2023 03:20:00,MW,6.5349194
Darley Abbey,10/11/2023 03:25:00,MW,6.511366
Darley Abbey,10/11/2023 03:30:00,MW,6.6370392
Darley Abbey,10/11/2023 03:35:00,MW,6.6432967000000005
Darley Abbey,10/11/2023 03:40:00,MW,6.5775128
Darley Abbey,10/11/2023 03:45:00,MW,6.575818
Darley Abbey,10/11/2023 03:50:00,MW,6.5991242
Darley Abbey,10/11/2023 03:55:00,MW,6.647846599999999
Darley Abbey,10/11/2023 04:00:00,MW,6.5566770000000005
Darley Abbey,10/11/2023 04:05:00,MW,6.5145846
Darley Abbey,10/11/2023 04:10:00,MW,6.4938326
Darley Abbey,10/11/2023 04:15:00,MW,6.5118659999999995
Darley Abbey,10/11/2023 04:20:00,MW,6.4637542
Darley Abbey,10/11/2023 04:25:00,MW,6.435855200000001
Darley Abbey,10/11/2023 04:30:00,MW,6.4356148
Darley Abbey,10/11/2023 04:35:00,MW,6.485744499999999
Darley Abbey,10/11/2023 04:40:00,MW,6.4234773
Darley Abbey,10/11/2023 04:45:00,MW,6.3875215
Darley Abbey,10/11/2023 04:50:00,MW,6.373172
Darley Abbey,10/11/2023 04:55:00,MW,6.4321228
Darley Abbey,10/11/2023 05:00:00,MW,6.3627652999999995
Darley Abbey,10/11/2023 05:05:00,MW,6.4250995
Darley Abbey,10/11/2023 05:10:00,MW,6.4061927999999995
Darley Abbey,10/11/2023 05:15:00,MW,6.418923
Darley Abbey,10/11/2023 05:20:00,MW,6.4745594
Darley Abbey,10/11/2023 05:25:00,MW,6.5451364
Darley Abbey,10/11/2023 05:30:00,MW,6.5958114000000005
Darley Abbey,10/11/2023 05:35:00,MW,6.7478051
Darley Abbey,10/11/2023 05:40:00,MW,6.8571267
Darley Abbey,10/11/2023 05:45:00,MW,6.9912953
Darley Abbey,10/11/2023 05:50:00,MW,6.925206
Darley Abbey,10/11/2023 05:55:00,MW,6.9931707
Darley Abbey,10/11/2023 06:00:00,MW,7.1013796
Darley Abbey,10/11/2023 06:05:00,MW,7.22729
Darley Abbey,10/11/2023 06:10:00,MW,7.3643194
Darley Abbey,10/11/2023 06:15:00,MW,7.4785582999999995
Darley Abbey,10/11/2023 06:20:00,MW,7.5090999
Darley Abbey,10/11/2023 06:25:00,MW,7.7185055
Darley Abbey,10/11/2023 06:30:00,MW,7.9907436
Darley Abbey,10/11/2023 06:35:00,MW,8.0940285
Darley Abbey,10/11/2023 06:40:00,MW,8.2479354
Darley Abbey,10/11/2023 06:45:00,MW,8.436036999999999
Darley Abbey,10/11/2023 06:50:00,MW,8.745323599999999
Darley Abbey,10/11/2023 06:55:00,MW,8.8991041
Darley Abbey,10/11/2023 07:00:00,MW,9.1642332
Darley Abbey,10/11/2023 07:05:00,MW,9.4981604
Darley Abbey,10/11/2023 07:10:00,MW,9.379181
Darley Abbey,10/11/2023 07:15:00,MW,9.4621973
Darley Abbey,10/11/2023 07:20:00,MW,9.59258
Darley Abbey,10/11/2023 07:25:00,MW,9.7642612
Darley Abbey,10/11/2023 07:30:00,MW,9.8346
Darley Abbey,10/11/2023 07:35:00,MW,9.821384
Darley Abbey,10/11/2023 07:40:00,MW,9.652261
Darley Abbey,10/11/2023 07:45:00,MW,9.7484505
Darley Abbey,10/11/2023 07:50:00,MW,9.7159197
Darley Abbey,10/11/2023 07:55:00,MW,9.5826823
Darley Abbey,10/11/2023 08:00:00,MW,9.727807599999998
Darley Abbey,10/11/2023 08:05:00,MW,9.893425
Darley Abbey,10/11/2023 08:10:00,MW,9.8499575
Darley Abbey,10/11/2023 08:15:00,MW,9.7201475
Darley Abbey,10/11/2023 08:20:00,MW,9.5754218
Darley Abbey,10/11/2023 08:25:00,MW,9.5497053
Darley Abbey,10/11/2023 08:30:00,MW,9.307898699999999
Darley Abbey,10/11/2023 08:35:00,MW,9.305117599999999
Darley Abbey,10/11/2023 08:40:00,MW,9.351811399999999
Darley Abbey,10/11/2023 08:45:00,MW,9.3266569
Darley Abbey,10/11/2023 08:50:00,MW,9.361033299999999
Darley Abbey,10/11/2023 08:55:00,MW,9.382104900000002
Darley Abbey,10/11/2023 09:00:00,MW,9.6110697
Darley Abbey,10/11/2023 09:05:00,MW,9.595328
Darley Abbey,10/11/2023 09:10:00,MW,9.5914255
Darley Abbey,10/11/2023 09:15:00,MW,9.626097699999999
Darley Abbey,10/11/2023 09:20:00,MW,9.6045523
Darley Abbey,10/11/2023 09:25:00,MW,9.4809161
Darley Abbey,10/11/2023 09:30:00,MW,9.146431499999998
Darley Abbey,10/11/2023 09:35:00,MW,9.297108000000001
Darley Abbey,10/11/2023 09:40:00,MW,9.147840599999999
Darley Abbey,10/11/2023 09:45:00,MW,9.3658476
Darley Abbey,10/11/2023 09:50:00,MW,9.3852464
Darley Abbey,10/11/2023 09:55:00,MW,9.5790087
Darley Abbey,10/11/2023 10:00:00,MW,9.386183599999999
Darley Abbey,10/11/2023 10:05:00,MW,9.3681336
Darley Abbey,10/11/2023 10:10:00,MW,9.127426
Darley Abbey,10/11/2023 10:15:00,MW,9.329709999999999
Darley Abbey,10/11/2023 10:20:00,MW,9.5866765
Darley Abbey,10/11/2023 10:25:00,MW,9.5110595
Darley Abbey,10/11/2023 10:30:00,MW,9.547371
Darley Abbey,10/11/2023 10:35:00,MW,9.561533
Darley Abbey,10/11/2023 10:40:00,MW,9.520080100000001
Darley Abbey,10/11/2023 10:45:00,MW,9.606553
Darley Abbey,10/11/2023 10:50:00,MW,9.616794500000001
Darley Abbey,10/11/2023 10:55:00,MW,9.668700600000001
Darley Abbey,10/11/2023 11:00:00,MW,9.5629655
Darley Abbey,10/11/2023 11:05:00,MW,9.512702
Darley Abbey,10/11/2023 11:10:00,MW,9.349689
Darley Abbey,10/11/2023 11:15:00,MW,9.4374743
Darley Abbey,10/11/2023 11:20:00,MW,9.535764
Darley Abbey,10/11/2023 11:25:00,MW,9.5579429
Darley Abbey,10/11/2023 11:30:00,MW,9.4695903
Darley Abbey,10/11/2023 11:35:00,MW,9.4346435
Darley Abbey,10/11/2023 11:40:00,MW,9.528969
Darley Abbey,10/11/2023 11:45:00,MW,9.2187862
Darley Abbey,10/11/2023 11:50:00,MW,8.968439
Darley Abbey,10/11/2023 11:55:00,MW,9.199894
Darley Abbey,10/11/2023 12:00:00,MW,8.979094
Darley Abbey,10/11/2023 12:05:00,MW,8.5071787
Darley Abbey,10/11/2023 12:10:00,MW,8.6654666
Darley Abbey,10/11/2023 12:15:00,MW,8.8184132
Darley Abbey,10/11/2023 12:20:00,MW,8.900288
Darley Abbey,10/11/2023 12:25:00,MW,8.7916546
Darley Abbey,10/11/2023 12:30:00,MW,8.723876
Darley Abbey,10/11/2023 12:35:00,MW,8.4583585
Darley Abbey,10/11/2023 12:40:00,MW,8.5565777
Darley Abbey,10/11/2023 12:45:00,MW,8.5860314
Darley Abbey,10/11/2023 12:50:00,MW,8.659298799999998
Darley Abbey,10/11/2023 12:55:00,MW,8.675968999999998
Darley Abbey,10/11/2023 13:00:00,MW,8.608931
Darley Abbey,10/11/2023 13:05:00,MW,8.5408547
Darley Abbey,10/11/2023 13:10:00,MW,8.582351500000001
Darley Abbey,10/11/2023 13:15:00,MW,8.560668
Darley Abbey,10/11/2023 13:20:00,MW,8.4754097
Darley Abbey,10/11/2023 13:25:00,MW,8.5860854
Darley Abbey,10/11/2023 13:30:00,MW,8.379642
Darley Abbey,10/11/2023 13:35:00,MW,8.306563
Darley Abbey,10/11/2023 13:40:00,MW,8.171621
Darley Abbey,10/11/2023 13:45:00,MW,8.188424000000001
Darley Abbey,10/11/2023 13:50:00,MW,8.2056204
Darley Abbey,10/11/2023 13:55:00,MW,8.2203716
Darley Abbey,10/11/2023 14:00:00,MW,8.230789000000001
Darley Abbey,10/11/2023 14:05:00,MW,8.157211499999999
Darley Abbey,10/11/2023 14:10:00,MW,8.126683
Darley Abbey,10/11/2023 14:15:00,MW,8.0057493
Darley Abbey,10/11/2023 14:20:00,MW,8.0550852
Darley Abbey,10/11/2023 14:25:00,MW,8.0204548
Darley Abbey,10/11/2023 14:30:00,MW,8.0982606
Darley Abbey,10/11/2023 14:35:00,MW,7.9765289
Darley Abbey,10/11/2023 14:40:00,MW,7.9983075
Darley Abbey,10/11/2023 14:45:00,MW,8.021328
Darley Abbey,10/11/2023 14:50:00,MW,8.170405299999999
Darley Abbey,10/11/2023 14:55:00,MW,8.261403999999999
Darley Abbey,10/11/2023 15:00:00,MW,8.3870644
Darley Abbey,10/11/2023 15:05:00,MW,8.431508000000001
Darley Abbey,10/11/2023 15:10:00,MW,8.5306888
Darley Abbey,10/11/2023 15:15:00,MW,8.538827300000001
Darley Abbey,10/11/2023 15:20:00,MW,8.3327902
Darley Abbey,10/11/2023 15:25:00,MW,8.2601006
Darley Abbey,10/11/2023 15:30:00,MW,8.2892112
Darley Abbey,10/11/2023 15:35:00,MW,8.350943999999998
Darley Abbey,10/11/2023 15:40:00,MW,8.364316500000001
Darley Abbey,10/11/2023 15:45:00,MW,8.3656464
Darley Abbey,10/11/2023 15:50:00,MW,8.570051
Darley Abbey,10/11/2023 15:55:00,MW,8.7095087
Darley Abbey,10/11/2023 16:00:00,MW,8.8813136
Darley Abbey,10/11/2023 16:05:00,MW,8.897863000000001
Darley Abbey,10/11/2023 16:10:00,MW,9.003303500000001
Darley Abbey,10/11/2023 16:15:00,MW,8.967152
Darley Abbey,10/11/2023 16:20:00,MW,9.1279477
Darley Abbey,10/11/2023 16:25:00,MW,9.3080265
Darley Abbey,10/11/2023 16:30:00,MW,9.248315
Darley Abbey,10/11/2023 16:35:00,MW,9.190881000000001
Darley Abbey,10/11/2023 16:40:00,MW,9.257397600000001
Darley Abbey,10/11/2023 16:45:00,MW,9.389287
Darley Abbey,10/11/2023 16:50:00,MW,9.367325000000001
Darley Abbey,10/11/2023 16:55:00,MW,9.6763114
Darley Abbey,10/11/2023 17:00:00,MW,9.8130933
Darley Abbey,10/11/2023 17:05:00,MW,9.7425466
Darley Abbey,10/11/2023 17:10:00,MW,10.010715900000001
Darley Abbey,10/11/2023 17:15:00,MW,10.170762400000001
Darley Abbey,10/11/2023 17:20:00,MW,10.2824374
Darley Abbey,10/11/2023 17:25:00,MW,10.31455
Darley Abbey,10/11/2023 17:30:00,MW,10.4511228
Darley Abbey,10/11/2023 17:35:00,MW,10.5176816
Darley Abbey,10/11/2023 17:40:00,MW,10.4564437
Darley Abbey,10/11/2023 17:45:00,MW,10.376895900000001
Darley Abbey,10/11/2023 17:50:00,MW,10.428728
Darley Abbey,10/11/2023 17:55:00,MW,10.5000695
Darley Abbey,10/11/2023 18:00:00,MW,10.5332347
Darley Abbey,10/11/2023 18:05:00,MW,10.503566
Darley Abbey,10/11/2023 18:10:00,MW,10.526212699999999
Darley Abbey,10/11/2023 18:15:00,MW,10.6367714
Darley Abbey,10/11/2023 18:20:00,MW,10.777607
Darley Abbey,10/11/2023 18:25:00,MW,10.7034331
Darley Abbey,10/11/2023 18:30:00,MW,10.5993753
Darley Abbey,10/11/2023 18:35:00,MW,10.4878205
Darley Abbey,10/11/2023 18:40:00,MW,10.394998999999999
Darley Abbey,10/11/2023 18:45:00,MW,10.3385811
Darley Abbey,10/11/2023 18:50:00,MW,10.308196
Darley Abbey,10/11/2023 18:55:00,MW,10.179614
Darley Abbey,10/11/2023 19:00:00,MW,10.2113271
Darley Abbey,10/11/2023 19:05:00,MW,10.2471084
Darley Abbey,10/11/2023 19:10:00,MW,9.947055299999999
Darley Abbey,10/11/2023 19:15:00,MW,9.99085
Darley Abbey,10/11/2023 19:20:00,MW,9.9415356
Darley Abbey,10/11/2023 19:25:00,MW,9.8633232
Darley Abbey,10/11/2023 19:30:00,MW,9.7709875
Darley Abbey,10/11/2023 19:35:00,MW,9.6376253
Darley Abbey,10/11/2023 19:40:00,MW,9.6661268
Darley Abbey,10/11/2023 19:45:00,MW,9.6096592
Darley Abbey,10/11/2023 19:50:00,MW,9.3203624
Darley Abbey,10/11/2023 19:55:00,MW,9.3188267
Darley Abbey,10/11/2023 20:00:00,MW,9.2690685
Darley Abbey,10/11/2023 20:05:00,MW,9.1212965
Darley Abbey,10/11/2023 20:10:00,MW,8.9966493
Darley Abbey,10/11/2023 20:15:00,MW,8.9686524
Darley Abbey,10/11/2023 20:20:00,MW,8.908842100000001
Darley Abbey,10/11/2023 20:25:00,MW,8.8530324
Darley Abbey,10/11/2023 20:30:00,MW,9.0980277
Darley Abbey,10/11/2023 20:35:00,MW,9.0697136
Darley Abbey,10/11/2023 20:40:00,MW,8.9710006
Darley Abbey,10/11/2023 20:45:00,MW,8.8445456
Darley Abbey,10/11/2023 20:50:00,MW,8.651597299999999
Darley Abbey,10/11/2023 20:55:00,MW,8.738829299999999
Darley Abbey,10/11/2023 21:00:00,MW,8.693935
Darley Abbey,10/11/2023 21:05:00,MW,8.621255399999999
Darley Abbey,10/11/2023 21:10:00,MW,8.4226515
Darley Abbey,10/11/2023 21:15:00,MW,8.3377142
Darley Abbey,10/11/2023 21:20:00,MW,8.163766500000001
Darley Abbey,10/11/2023 21:25:00,MW,8.107997000000001
Darley Abbey,10/11/2023 21:30:00,MW,8.0038031
Darley Abbey,10/11/2023 21:35:00,MW,7.9712296
Darley Abbey,10/11/2023 21:40:00,MW,7.883964300000001
Darley Abbey,10/11/2023 21:45:00,MW,7.9070396
Darley Abbey,10/11/2023 21:50:00,MW,7.7213782
Darley Abbey,10/11/2023 21:55:00,MW,7.6360825000000006
Darley Abbey,10/11/2023 22:00:00,MW,7.5857741999999995
Darley Abbey,10/11/2023 22:05:00,MW,7.4658997
Darley Abbey,10/11/2023 22:10:00,MW,7.3733383
Darley Abbey,10/11/2023 22:15:00,MW,7.3318031
Darley Abbey,10/11/2023 22:20:00,MW,7.3399175
Darley Abbey,10/11/2023 22:25:00,MW,7.2258032
Darley Abbey,10/11/2023 22:30:00,MW,6.9891608000000005
Darley Abbey,10/11/2023 22:35:00,MW,6.921891
Darley Abbey,10/11/2023 22:40:00,MW,6.8483878
Darley Abbey,10/11/2023 22:45:00,MW,6.7411075
Darley Abbey,10/11/2023 22:50:00,MW,6.6594875
Darley Abbey,10/11/2023 22:55:00,MW,6.5445839
Darley Abbey,10/11/2023 23:00:00,MW,6.385438199999999
Darley Abbey,10/11/2023 23:05:00,MW,6.354176799999999
Darley Abbey,10/11/2023 23:10:00,MW,6.277506799999999
Darley Abbey,10/11/2023 23:15:00,MW,6.2163654
Darley Abbey,10/11/2023 23:20:00,MW,6.1541443000000005
Darley Abbey,10/11/2023 23:25:00,MW,6.173711600000001
Darley Abbey,10/11/2023 23:30:00,MW,6.1414628
Darley Abbey,10/11/2023 23:35:00,MW,6.079442800000001
Darley Abbey,10/11/2023 23:40:00,MW,6.0400532
Darley Abbey,10/11/2023 23:45:00,MW,6.0134039
Darley Abbey,10/11/2023 23:50:00,MW,5.9417109
Darley Abbey,10/11/2023 23:55:00,MW,5.8348903
